map of SUA home
SUA - Airport
Location
City:  Stuart, Florida, United States
Name:Witham Field
ICAO:KSUA
IATA:SUA
FAA LID:SUA

Details
Type:Airport (Airfield)
Use:Public/Civil
Latitude:2710'54"N (27.181694)
Longitude:8013'17"W (-80.221305)
Datum:WGS 1984
Elevation:16 ft (5 m)
Variation:6.94W (WMM2015 magnetic declination)
-0.09 annual change
Runways:3
Longest:5828 × 100 ft (1776 × 30.5 m), paved

Time
Time Zone:UTC-5 (DST-4)
Local Time:

Weather
METAR:KSUA 212247Z 01005KT 5SM -TSRA BKN025 25/23 A2996
TAF:KSUA 211720Z 2118/2218 27008KT P6SM SCT035 SCT250
FM212000 14008KT P6SM VCTS SCT040CB SCT250
TEMPO 2121/2124 3SM TSRA BKN035CB OVC080
FM220100 27005KT P6SM SCT040 BKN120

Related Locations
Nearby:
Farthest:USL: 11602 mi / 18671 km
Useless Loop, WA, AU

Find:

   beyond  
but within

Other Information
Maps:
NOTAMs:
Links:
Sources:

  
  • flag of United States
  • flag of Florida
  

Airport Diagram

Airport diagram for SUA

Airport diagram PDF

Sectional Chart

Flight Planning
at skyvector.com

Satellite Image

Google Maps Satellite view

 

Copyright © 2004-2018 Karl L. Swartz. All rights reserved.
The Great Circle Mapper name and logo are trademarks of the Great Circle Mapper.
All other trademarks mentioned herein belong to their respective owners.
Please see credits for attibutions and further copyright information.

  Follow gcmap on Facebook Follow gcmap on Twitter Follow gcmap on Google+ GCmap on LinkedIn

hCard Microformat

Geo Microformat